星链-34237 (STARLINK-34237)

导读 | 豆包AI

STARLINK-34237是美国SpaceX公司星链星座的一员,于2025年5月28日发射升空。星链项目旨在通过近地轨道卫星星座,为全球提供高速互联网接入服务,尤其填补偏远地区的网络覆盖空白。此次发射助力星链星座扩容,推动星链新一代5G卫星服务部署,进一步提升全球卫星互联网的覆盖能力与服务性能。

Basic Information
目录编号:
64194
目录名称:
STARLINK-34237
国际标识:
2025-113AA
轨道中心:
EARTH
卫星名称:
星链-34237
卫星全名:
星链-34237 (STARLINK-34237)
卫星状态:
在轨 (已飞行336 天)
发射日期:
2025-05-28 UTC
国别 :
美国 (US)
星等 :
--
Orbit Information
数据来源 国际轨道数据 AOE轨道数据
星历时间 2026-04-29T14:57:02+0800
10小时前
查看轨道信息
2026-04-23T08:00:00+0800
6天前
查看轨道信息
半长轴 6851.905km 6853.295km
偏心率 0.0001007 0.0001084
轨道倾角 53.159° 53.165°
近地点辐角 33.772° 69.703°
升交点赤经 215.991° 245.204°
平近点角 326.334° 182.748°
近地点 473.078km 474.415km
远地点 474.458km 475.901km
周期 94.076分钟 94.104分钟
每日圈数 15.306849 15.302193
Detailed Information
固有亮度:
5
最大亮度:
2.5
卫星平台:
Starlink V1.0
覆盖范围:
全球
运营商:
太空探索技术公司
运营商所在国:
美国
制造商(研发单位):
太空探索技术公司
制造商所在国:
美国
使用方式:
暂无
Satellite Introduction
Starlink 计划是 SpaceX 推出的全球卫星互联网项目,通过发射低轨道卫星,为全球尤其是偏远地区提供高速、低延迟的互联网服务。自 2019 年起,Starlink 已部署数千颗卫星,旨在缩小全球数字鸿沟,推动互联网普及。该项目还为军事、航空等行业提供通信支持,带来广泛经济效益。
2D Orbit Map
3D Orbit Map
Orbit Altitude Analysis Chart
Orbit Inclination Analysis Chart
Orbit Comprehensive Analysis Chart
View Comprehensive Chart